Rochester, NH (03866)

11:30 AM EST on February 11, 2016 (GMT -0500)
Trip | | Change Station
CLOSE
Current Station
Personal Weather Station
Location: Rochester, NH
Elevation: 256 ft
Nearby Weather Stations

Elev 256 ft 43.31 °N, 70.96 °W | Updated 14 minutes ago

Overcast
Overcast
28.9 °F
Feels Like 22 °F
N
6.8
Wind Variable Wind from North

Today
High -- | Low -- °F
--% Chance of Precip.
Yesterday
High -- | Low -- °F
Precip. -- in
Pressure 29.66 in
Visibility 10.0 miles
Clouds Overcast 3300 ft
Windchill 22 °F
Dew Point 13 °F
Humidity 50%
Rainfall 0.00 in
Snow Depth Not available.
6:48 AM 5:08 PM
Waxing Crescent, 13% visible
METAR KDAW 111551Z AUTO VRB05KT 10SM OVC033 M03/M11 A2966 RMK AO2 SLP044 T10281111
Pressure 29.66 in
Visibility 10.0 miles
Clouds Overcast 3300 ft
Windchill 22 °F
Dew Point 13 °F
Humidity 50%
Rainfall 0.00 in
Snow Depth Not available.
6:48 AM 5:08 PM
Waxing Crescent, 13% visible
METAR KDAW 111551Z AUTO VRB05KT 10SM OVC033 M03/M11 A2966 RMK AO2 SLP044 T10281111

10-Day Weather Forecast

Almanac

Astronomy

Feb. 11, 2016 Rise Set
Actual Time
Civil Twilight
Nautical Twilight
Astronomical Twilight
Moon
Length of Visible Light
Length of Day
Tomorrow will be .
, % of the Moon is Illuminated

Today's Extremes

State Highs State Lows

Community

WunderPhotos

Upload Photos

1,892,094 photos uploaded!

WunderBlog® & News

Nearby

Air Quality

  Air Quality AQ Index Pollutant
Not available.

Snow Depth

Station Depth Elevation

Earthquake Activity

City Distance Mag. Time & Date
Minimum magnitude displayed is 2.5.

Coastal Water Temperatures

Place Temperature

Stations

Nearby Weather Stations

Station Location Temp. Windchill Dew Point Humidity Wind Precip. Elev Updated Type
                   

Watches & Warnings

There are currently no watches in effect.